Theta_e
351 350 350 350 351 354 355 355 352 352 351 350 351 351 352 353 352 351 353 354 355 355 355 356 355 355 355 355 356 355 356 354 354 354 354 355 355 354 355 355 354 352 352 352 353 353 354 354 355 356 356 356 355 356 356 356 355 354 354 354 353 354 353
350 349 350 350 350 352 351 352 353 353 352 351 351 352 353 353 353 353 352 353 355 356 356 357 356 356 356 356 356 356 356 355 355 355 355 355 355 355 356 355 355 354 352 353 353 353 354 355 355 356 356 356 356 357 357 357 356 354 354 355 354 354 353
349 349 350 349 349 351 351 350 351 353 353 352 351 352 353 353 352 353 352 353 355 356 357 357 357 357 357 357 357 357 357 357 357 356 356 356 355 356 356 356 356 355 352 352 352 353 353 353 354 355 355 356 356 356 356 357 356 353 353 354 354 353 352
348 349 349 349 348 349 350 350 349 352 354 352 352 353 353 353 353 353 352 352 356 357 358 358 358 359 359 359 358 358 358 358 358 358 357 357 356 356 357 357 358 355 353 352 353 353 352 353 353 353 354 355 355 355 356 357 356 354 353 354 354 353 351
349 349 348 348 347 347 349 351 350 351 352 353 352 351 352 352 352 353 353 353 354 355 358 358 358 359 359 359 359 358 359 358 358 358 358 359 358 358 358 358 357 357 355 355 354 353 353 353 353 352 353 354 355 355 356 356 356 355 354 354 353 353 352
350 350 349 348 347 347 348 349 350 351 351 353 352 350 352 352 352 353 353 355 355 354 356 358 359 358 359 359 359 359 359 359 359 359 359 360 360 359 359 358 358 357 357 357 356 355 354 353 353 352 352 354 354 355 356 355 355 355 356 355 354 353 353
351 350 349 348 347 347 348 348 349 351 351 353 353 351 350 351 352 352 353 356 358 357 358 359 358 358 358 358 359 360 360 360 360 360 360 361 360 360 360 359 358 358 358 358 358 356 355 353 352 353 352 353 354 354 354 355 354 356 355 355 354 354 355
351 350 349 348 348 347 348 348 349 350 351 353 353 351 350 351 352 353 353 356 358 360 360 359 358 358 357 357 359 361 361 360 361 361 361 361 360 360 360 359 359 358 359 358 358 356 354 352 352 351 351 352 353 353 353 353 354 355 356 355 355 356 356
350 349 349 347 348 349 349 350 349 349 351 353 354 354 353 353 354 353 353 354 358 361 360 359 359 358 357 358 359 360 361 361 361 361 361 361 360 360 360 360 360 359 357 358 355 352 351 350 350 350 351 352 352 353 353 353 353 354 355 355 355 356 357
352 350 349 347 348 350 349 350 351 350 351 353 355 356 356 355 355 354 354 354 356 360 360 360 359 359 358 359 359 360 361 361 361 361 361 361 360 359 360 359 359 357 355 354 352 350 350 349 349 350 351 352 353 353 353 353 352 354 355 356 356 357 358
351 350 350 348 349 351 350 351 352 351 353 355 354 355 356 355 355 355 355 354 356 358 360 361 360 359 359 358 359 360 360 360 360 360 360 360 359 359 359 358 356 353 352 351 350 351 350 349 350 352 351 352 353 354 354 353 353 355 357 357 358 359 359
350 352 351 348 350 351 351 352 351 351 353 355 354 355 356 354 354 354 353 354 355 357 359 359 359 359 359 359 358 358 359 359 359 359 359 359 358 357 356 355 351 350 352 352 351 351 350 348 351 353 351 351 354 355 355 357 357 358 359 359 360 359 360
349 351 350 349 349 350 351 352 352 351 351 353 354 354 354 354 354 353 353 352 354 355 354 355 356 358 359 359 359 358 358 358 358 358 357 357 357 356 356 354 351 351 351 351 350 351 350 350 352 354 353 352 354 356 356 358 359 359 359 359 360 359 359
348 349 349 349 349 348 350 352 353 351 350 351 352 352 354 355 354 354 354 354 354 354 353 354 355 356 358 359 359 359 358 358 358 358 356 356 356 355 356 355 354 354 353 351 350 349 351 352 353 356 357 356 355 356 355 356 356 356 356 358 360 359 358
349 349 349 349 348 348 349 350 352 352 349 349 349 350 352 352 352 354 355 355 355 354 354 355 355 355 357 359 359 359 359 358 358 358 357 356 356 356 357 356 355 356 355 353 351 351 352 353 355 358 359 358 357 356 355 354 354 354 356 358 359 357 357
350 350 349 349 348 348 347 349 352 351 349 349 349 349 350 350 350 351 352 354 355 355 355 355 354 354 355 357 359 359 360 359 358 358 358 357 357 357 358 357 357 356 354 353 354 354 354 356 358 359 358 357 358 357 355 354 355 355 356 356 356 355 355
350 350 349 348 348 347 345 347 350 350 350 350 349 349 349 349 349 349 349 351 353 354 355 354 354 354 354 355 357 357 357 356 356 357 359 359 359 358 357 357 356 355 354 354 355 355 355 357 358 358 358 357 358 357 355 354 355 355 355 354 354 354 354
350 350 349 349 347 345 343 345 347 349 349 349 348 349 349 349 349 350 349 350 352 353 354 354 354 354 353 354 355 356 355 353 353 356 359 360 359 358 358 357 355 355 355 354 355 355 355 357 358 358 359 358 358 357 356 355 355 354 354 353 353 353 353
349 349 349 349 347 345 344 344 346 347 348 349 349 347 347 348 349 350 350 351 352 353 353 354 353 351 352 354 355 355 355 353 354 355 355 357 358 358 358 358 356 356 355 355 356 358 358 358 359 359 359 359 358 358 356 355 355 354 353 352 353 353 353
347 347 349 350 346 344 344 344 344 344 346 349 350 348 347 347 347 350 350 351 353 354 353 353 353 352 353 354 352 352 355 356 356 354 352 355 357 357 358 358 357 356 356 356 359 359 358 358 359 359 358 358 358 357 356 355 355 354 352 351 351 352 352
347 346 349 350 345 343 343 344 344 344 346 349 350 349 348 346 347 349 350 351 352 354 353 353 353 353 354 353 349 351 356 356 355 354 354 356 357 358 358 358 357 357 357 358 359 360 358 358 359 359 358 357 356 355 354 353 354 352 350 349 351 353 352
346 346 349 349 345 342 343 344 344 346 348 348 348 349 349 348 348 347 348 350 351 351 352 352 353 355 355 353 350 351 355 356 355 355 356 356 356 357 358 358 357 357 358 358 359 359 359 358 358 357 355 354 354 354 353 353 351 350 349 349 351 353 350
343 345 347 345 342 341 342 343 346 347 348 348 346 347 349 349 349 348 349 350 350 349 350 351 353 356 356 354 351 350 353 355 355 355 355 355 355 355 356 357 357 357 357 358 357 357 358 357 357 356 353 352 353 354 352 351 349 349 348 349 350 351 350
339 341 343 342 341 341 341 342 344 345 347 348 346 345 347 348 349 349 349 350 351 349 349 350 353 355 354 352 351 351 352 354 354 355 355 354 353 354 355 355 355 356 357 357 356 356 356 356 356 355 353 353 353 352 350 349 348 348 349 348 349 349 349
339 339 341 340 340 342 342 343 343 343 346 348 345 345 346 346 346 348 350 352 351 349 348 349 352 352 352 351 350 351 352 353 354 355 354 353 352 351 352 353 355 356 355 355 355 354 354 354 354 353 353 352 352 350 348 348 347 348 348 348 348 348 348
340 339 339 340 340 342 343 342 343 344 345 346 347 348 347 345 345 347 348 350 350 349 349 349 351 351 349 350 351 352 353 354 354 354 353 352 350 350 350 351 353 353 354 353 353 352 351 350 350 350 350 350 349 347 346 346 346 346 347 347 346 346 346
340 339 339 339 340 342 344 343 343 344 345 346 347 348 347 346 345 346 347 347 348 349 350 349 350 351 350 350 351 352 354 355 355 353 352 351 351 351 350 350 350 351 352 352 351 350 349 348 348 347 346 346 345 345 344 345 345 345 346 346 346 346 344
340 339 338 338 339 342 345 344 343 344 345 344 343 344 346 345 343 344 346 346 346 348 351 351 350 351 350 349 350 351 352 354 353 352 351 351 352 352 351 350 349 350 350 348 346 346 347 347 348 346 343 342 342 343 342 343 343 343 342 341 341 342 343
341 339 338 338 338 341 344 344 343 344 343 343 343 345 346 345 343 343 344 345 345 347 350 352 350 349 349 348 349 350 351 352 352 352 351 351 351 352 350 350 350 350 348 344 342 343 345 346 344 342 340 340 340 341 341 341 341 341 339 336 335 338 341
341 339 338 338 338 340 343 344 343 343 342 343 345 345 345 344 344 343 343 345 346 347 350 352 350 348 348 348 349 349 350 350 351 351 351 351 352 350 350 350 350 349 346 343 342 343 344 343 340 339 339 339 338 339 339 339 338 337 336 335 336 338 340
340 338 338 339 339 340 342 343 343 343 342 342 344 344 344 343 343 344 344 345 346 349 350 351 350 348 346 347 347 348 349 350 350 351 351 351 351 350 350 350 349 346 344 343 343 344 344 341 339 339 339 338 337 337 336 336 335 335 336 336 337 338 339
339 339 339 341 342 342 342 342 342 342 342 342 342 343 344 343 343 346 347 346 347 350 350 349 349 348 346 346 348 349 350 351 350 350 350 350 350 351 350 349 347 344 343 343 342 344 345 341 339 339 338 337 337 336 335 335 336 337 338 338 338 338 338
339 341 341 343 344 343 342 341 341 341 341 341 342 343 343 343 344 347 349 348 348 350 350 348 349 348 348 347 348 349 351 350 349 349 349 350 350 349 348 346 344 342 343 342 343 345 346 342 340 339 338 337 337 336 336 337 338 338 339 339 339 339 338
339 342 343 343 343 342 341 340 341 342 342 342 342 343 343 343 346 348 349 348 348 348 348 348 348 349 349 347 347 347 349 349 348 347 348 349 349 347 345 343 342 342 344 343 344 347 346 343 340 339 338 339 339 338 339 339 339 340 340 339 339 339 337
340 342 342 342 341 340 339 341 341 341 341 341 342 343 343 344 346 348 348 347 347 346 346 347 348 348 347 346 345 345 345 345 345 346 347 347 347 345 344 344 344 345 345 345 346 348 347 344 340 338 338 339 339 339 341 340 338 338 338 335 334 332 331
340 341 341 341 341 338 339 341 341 340 340 341 341 343 344 343 346 349 349 348 348 345 344 346 347 346 345 344 343 343 342 341 342 344 346 346 344 342 341 341 343 345 345 345 347 347 347 344 340 337 339 340 341 341 341 339 335 333 331 328 327 326 325
339 340 341 341 339 338 339 341 341 341 342 341 342 343 342 343 346 350 349 349 347 345 345 346 345 344 343 341 341 342 342 340 340 342 343 342 342 341 339 338 339 342 345 347 347 347 347 345 340 339 341 343 342 339 336 334 330 326 324 323 323 323 324
339 341 342 341 339 337 339 340 340 340 341 342 343 343 342 342 346 349 349 349 347 346 346 345 344 343 341 340 339 340 339 338 338 339 339 338 338 339 339 338 336 336 339 344 347 347 347 346 343 343 344 343 340 336 331 327 323 321 321 323 324 325 325
Wind_Speed
9 9 9 8 7 6 6 6 10 16 19 22 23 24 25 25 26 27 26 29 33 34 33 34 35 36 36 37 36 36 35 34 33 33 32 30 28 27 26 24 24 25 24 22 23 22 21 19 19 20 20 21 21 19 18 17 15 14 14 14 15 15 12
9 8 8 8 8 7 8 11 11 15 18 21 24 25 26 27 28 28 27 29 32 34 35 34 35 37 37 37 36 35 35 34 33 32 31 30 29 28 26 24 24 25 25 23 22 21 20 19 20 21 22 21 21 19 18 18 16 17 17 16 16 16 13
7 7 7 7 7 8 8 11 12 15 21 22 23 25 27 28 29 29 28 29 31 33 34 35 35 37 37 35 34 34 34 33 31 31 30 31 30 28 27 25 23 25 26 23 22 21 20 21 22 22 22 22 21 20 19 19 17 17 17 17 18 18 16
8 8 8 7 7 8 8 10 13 13 19 24 24 26 28 29 29 30 30 30 30 29 31 35 36 35 32 32 32 32 33 32 31 31 30 30 29 28 27 25 23 25 26 24 23 22 21 23 23 23 23 23 22 21 21 19 18 18 17 16 17 18 16
8 8 8 8 8 8 8 9 13 15 14 20 24 25 26 28 28 29 31 30 29 29 32 36 36 32 31 32 33 33 33 33 32 31 30 29 29 28 28 27 24 24 24 23 23 23 24 25 25 24 24 24 23 22 21 20 19 18 18 17 17 16 14
7 7 7 8 8 8 9 11 15 17 15 13 21 23 23 27 28 28 28 27 29 32 35 37 35 33 34 34 34 33 32 33 32 31 31 29 29 29 30 29 26 23 22 22 24 24 25 26 27 26 25 25 25 24 23 22 20 19 20 20 17 14 13
6 6 6 8 8 9 9 12 16 19 18 11 16 23 23 26 27 27 29 29 29 33 36 37 36 35 37 36 34 33 32 33 33 32 31 30 29 30 30 29 27 25 23 22 23 24 24 26 26 25 25 25 25 25 23 22 21 20 20 21 18 15 14
5 5 6 7 8 9 9 11 15 18 18 11 8 21 24 26 26 28 32 32 31 33 36 38 38 37 38 37 35 34 34 34 33 32 32 31 31 30 30 29 28 26 24 24 25 23 21 23 26 24 22 23 23 23 23 22 21 21 21 20 19 17 17
6 5 5 6 8 8 8 11 14 16 13 8 4 16 21 24 27 31 34 32 30 31 35 37 38 38 39 38 36 35 35 34 33 32 32 32 32 31 30 28 26 25 24 21 18 16 14 15 20 23 22 21 23 23 23 22 20 20 22 21 20 19 18
6 6 5 6 7 7 8 11 13 13 8 6 6 11 16 20 25 28 31 31 31 33 36 37 37 37 38 38 37 36 35 34 32 32 32 32 32 30 28 28 28 23 14 5 1 3 7 8 14 20 24 24 23 24 25 23 20 19 21 21 20 19 18
6 7 6 6 7 8 8 9 9 11 7 3 9 12 17 20 23 25 28 30 30 30 32 34 35 36 37 37 37 36 35 34 32 31 31 32 30 28 28 27 17 4 11 9 3 3 9 13 16 18 23 25 23 24 24 22 19 18 19 19 18 17 16
6 6 6 7 7 7 8 8 8 11 11 4 10 14 18 22 24 26 27 28 26 25 26 28 30 33 35 35 35 35 35 33 32 31 31 30 27 26 24 16 8 13 12 3 5 8 15 20 17 16 20 23 22 22 22 21 20 19 18 17 16 16 14
6 6 6 6 5 5 6 8 8 11 14 11 3 8 13 16 19 22 24 25 25 27 28 29 30 31 33 34 33 35 35 34 32 31 30 27 24 21 17 11 9 9 10 11 11 13 17 19 17 15 18 20 20 21 21 20 18 16 15 14 14 13 12
7 8 8 8 7 6 5 7 8 9 14 15 7 1 6 8 9 13 18 21 23 26 30 31 31 31 32 33 33 34 35 34 32 30 28 23 20 17 14 12 11 14 17 16 14 13 15 19 19 17 15 16 17 18 18 18 16 14 14 14 13 11 10
8 9 10 10 10 9 5 5 6 8 13 16 9 2 6 8 7 8 11 13 15 19 24 26 28 30 31 32 33 33 33 31 27 25 23 19 17 17 16 16 17 16 17 17 15 13 16 20 21 19 16 14 14 15 16 15 14 14 14 13 11 9 8
8 9 10 11 11 11 8 5 5 7 11 16 13 7 8 10 10 10 9 8 10 16 20 20 22 26 28 30 32 32 29 24 20 19 17 16 17 18 19 20 20 18 18 18 16 16 19 20 20 18 16 15 14 14 13 11 11 12 11 10 9 8 8
8 9 11 11 12 12 11 10 7 6 9 14 17 13 11 11 11 12 11 9 9 14 18 18 20 25 27 25 27 26 20 15 13 13 15 17 18 19 21 21 20 19 20 20 18 19 20 21 21 19 16 15 14 13 12 11 11 11 9 9 9 9 10
8 9 10 11 12 12 13 13 11 10 10 12 17 16 12 12 13 15 15 13 12 14 16 16 17 20 22 18 17 15 11 14 13 12 14 17 20 21 21 21 19 19 19 20 21 22 22 22 21 19 17 15 14 13 12 12 11 10 10 10 11 10 11
8 8 9 10 11 11 11 13 13 15 16 13 16 17 13 10 9 9 11 13 13 15 19 19 13 10 14 14 7 11 17 17 15 14 14 19 22 23 22 21 20 20 20 22 23 24 24 22 20 18 17 15 15 14 13 11 11 10 10 11 12 12 12
7 8 7 9 10 9 9 12 16 19 21 17 13 13 12 10 10 9 7 9 14 18 22 23 19 15 10 4 7 16 14 10 13 15 19 21 21 22 23 23 22 21 21 22 23 23 23 22 19 17 16 15 15 14 13 12 12 11 10 11 13 13 11
7 7 8 9 10 9 10 14 18 21 22 20 16 12 10 9 10 12 10 7 12 18 20 18 17 18 17 14 12 12 11 13 17 19 21 21 21 23 25 24 22 20 20 21 21 22 21 20 19 18 16 16 15 14 13 13 13 11 10 12 15 13 11
7 7 7 8 9 10 13 17 19 21 21 19 17 14 11 12 12 11 12 10 9 12 12 11 12 15 18 19 18 16 16 18 19 20 21 22 22 24 25 24 21 20 20 20 21 20 20 20 20 19 18 17 15 14 13 13 13 12 11 14 16 14 13
7 8 9 9 11 13 17 20 21 21 20 19 17 14 13 16 15 11 11 12 11 10 9 9 12 16 18 20 21 19 18 19 19 18 20 21 21 22 24 24 23 22 22 21 21 21 21 22 21 19 18 17 15 14 15 15 13 12 14 16 16 15 14
8 10 12 14 15 15 17 20 21 20 19 19 18 15 15 16 15 12 8 7 10 12 10 9 10 12 12 13 17 19 19 19 18 17 18 18 18 19 23 25 24 23 23 23 23 23 23 23 22 20 18 17 16 15 16 16 14 14 14 15 15 15 14
8 10 15 20 19 13 13 18 21 19 16 17 18 18 17 16 16 13 7 2 6 11 12 9 7 5 4 6 10 15 18 19 18 17 18 16 12 10 16 23 25 24 24 24 23 23 23 23 22 21 19 18 17 17 17 17 15 14 14 14 14 15 15
7 6 11 22 23 14 10 14 19 18 16 16 18 19 19 18 17 15 10 4 3 8 11 8 4 5 7 8 10 13 15 16 18 18 17 16 13 9 9 17 23 24 23 23 22 22 22 21 20 19 18 17 17 18 18 17 16 14 14 14 14 14 15
9 5 7 17 23 18 12 12 14 16 16 16 16 19 21 21 19 18 14 9 5 6 7 6 6 6 7 9 11 13 15 16 17 16 12 14 18 16 13 14 18 21 22 22 22 22 23 22 19 16 15 16 18 19 18 17 17 16 15 14 13 12 13
9 7 9 14 18 18 14 13 15 17 18 18 18 18 19 18 18 19 18 13 8 5 2 6 11 12 11 10 10 12 15 15 16 15 13 13 16 17 15 13 14 16 17 18 21 23 22 21 19 18 18 19 20 20 19 18 16 16 14 13 12 11 11
6 6 12 15 17 17 14 12 12 13 14 17 16 13 10 8 8 10 13 12 8 4 3 7 12 13 12 12 12 12 14 15 16 16 16 17 17 16 16 14 14 16 17 18 22 22 20 19 20 21 21 22 21 20 19 17 15 14 14 12 12 12 11
6 7 12 16 17 18 18 14 9 5 6 10 8 3 1 4 3 4 3 6 6 7 7 10 13 15 17 17 15 15 16 18 19 20 21 22 20 18 19 18 19 20 20 21 24 24 20 20 22 24 23 23 22 21 19 18 17 15 14 13 14 14 14
7 7 11 16 14 15 19 17 11 6 6 9 8 5 4 5 4 4 6 8 9 9 10 11 14 16 18 19 18 18 20 20 21 24 25 25 23 23 23 24 24 22 22 24 27 27 23 23 25 26 25 24 24 23 21 20 20 19 17 16 15 16 15
8 5 8 12 10 12 17 16 11 11 12 13 12 8 4 3 3 4 6 7 9 10 11 13 14 15 17 19 19 21 24 25 26 27 26 25 26 26 26 27 27 25 24 25 25 25 25 25 25 25 25 25 24 23 22 22 21 20 18 17 16 16 15
8 6 7 9 10 12 15 13 12 16 14 14 15 11 8 6 5 6 8 9 12 13 13 15 16 16 16 18 21 25 29 29 26 25 25 25 26 26 24 24 24 25 25 25 23 22 23 25 24 24 24 23 23 22 22 21 20 18 16 15 15 15 13
9 8 8 11 11 12 11 8 16 17 13 13 15 11 8 8 6 8 9 11 15 17 17 17 17 17 16 18 20 24 28 29 25 24 26 26 26 26 23 22 22 23 25 27 26 24 24 24 24 25 25 24 23 22 21 19 17 16 15 13 13 13 11
12 10 10 12 11 11 7 14 19 16 12 13 14 12 10 9 8 9 10 12 15 18 18 17 17 17 19 21 21 19 20 23 26 28 30 29 27 27 24 22 22 23 24 26 28 28 27 26 25 26 26 26 26 24 22 20 18 16 14 13 12 11 10
13 12 14 14 11 9 8 20 20 15 12 11 12 13 12 11 10 9 10 12 15 17 18 17 17 19 20 22 23 22 21 22 26 29 31 30 28 27 23 20 21 23 23 24 25 26 27 27 28 29 29 27 25 22 21 21 19 16 14 12 10 9 9
13 13 16 14 11 6 14 19 16 15 15 13 12 12 12 12 10 8 9 11 14 16 16 15 17 19 19 20 22 25 27 27 27 28 29 29 29 29 26 22 19 19 21 22 22 23 25 26 28 29 27 24 23 21 20 20 18 16 13 11 9 10 12
14 13 14 10 11 8 20 18 12 14 17 16 15 13 11 11 10 8 9 11 14 15 13 14 16 18 18 19 21 22 25 27 27 27 28 28 28 28 28 26 23 19 17 18 20 22 24 26 27 26 22 21 23 24 22 20 19 18 16 14 13 15 17
Wind_Direction
16 11 10 2 351 337 313 278 224 203 198 201 202 203 203 205 207 201 191 189 191 191 193 195 197 198 201 204 206 209 211 214 216 216 218 221 223 224 227 228 229 233 232 225 222 222 224 224 222 224 229 232 235 236 238 240 235 229 230 234 242 250 252
9 3 358 353 348 343 333 317 271 219 203 202 203 202 201 202 203 201 195 192 193 193 193 194 196 198 201 203 205 207 210 213 215 217 219 221 224 226 228 231 233 235 231 226 224 225 229 230 226 226 230 233 237 238 238 237 233 229 233 241 243 240 240
355 354 351 342 336 330 321 321 299 240 212 204 201 200 200 201 201 201 198 195 195 195 193 194 198 199 201 202 203 206 209 212 215 217 220 223 225 228 230 233 239 237 230 227 227 227 233 236 232 230 232 235 239 239 237 236 233 228 232 241 239 234 242
349 344 341 330 325 323 312 318 316 276 228 209 201 200 200 200 198 198 201 199 193 191 194 197 199 198 198 199 202 206 210 212 215 219 221 224 226 230 232 235 238 233 227 229 232 231 235 239 237 235 234 236 239 238 236 235 232 230 233 238 235 235 245
343 343 341 333 328 326 317 310 316 309 267 223 207 202 201 199 195 193 200 201 193 193 201 202 199 194 195 201 205 208 212 214 216 219 221 224 226 229 230 232 234 231 226 230 234 233 235 238 238 239 237 236 237 236 236 234 231 233 235 234 233 238 242
336 344 340 330 325 319 314 307 305 311 306 252 213 204 202 199 195 192 195 198 195 197 204 204 197 192 195 204 209 210 212 214 216 219 221 223 226 227 229 229 230 230 229 231 236 236 236 238 238 238 237 236 235 233 234 235 232 233 234 233 234 235 231
334 342 335 326 320 313 308 307 304 308 319 298 217 203 199 197 194 192 194 195 193 194 199 201 198 194 198 206 209 210 211 214 216 218 220 222 226 227 228 228 229 230 230 234 239 240 241 240 236 232 232 233 232 230 231 233 232 232 232 231 230 227 222
331 333 331 322 317 317 307 303 306 306 319 328 212 196 195 192 187 188 194 195 193 193 197 201 199 197 202 207 208 209 213 215 216 217 218 221 224 226 226 227 229 229 229 234 240 243 243 236 227 225 226 225 223 224 225 228 229 230 231 230 228 225 223
327 324 326 323 317 320 311 307 310 304 315 355 161 187 188 186 185 189 194 194 192 194 199 204 203 201 205 209 209 210 213 215 216 216 218 220 222 224 224 224 227 227 230 236 240 238 232 229 230 227 221 217 216 216 217 221 225 228 230 230 227 223 221
326 324 329 330 322 321 316 313 313 303 311 43 108 168 175 180 187 191 194 193 194 198 202 206 205 204 206 208 210 212 212 213 215 215 218 221 222 224 224 227 230 230 232 243 283 212 201 229 260 242 219 212 213 211 213 217 220 224 227 227 223 219 219
325 325 331 335 325 324 322 316 311 300 294 104 126 159 174 181 186 189 193 195 197 201 205 209 208 207 208 209 210 213 213 213 214 214 217 220 222 224 227 229 223 149 58 47 21 285 223 227 260 252 220 211 209 206 209 212 212 213 213 213 212 211 214
324 321 328 330 322 320 320 313 304 297 290 241 154 166 180 186 190 193 195 199 202 203 207 216 219 212 208 209 211 213 214 214 213 214 217 219 220 223 223 214 153 90 58 24 226 230 222 218 234 240 217 207 202 198 199 201 200 198 194 195 200 204 211
319 315 316 318 316 315 315 311 307 300 296 290 222 168 182 193 200 201 200 202 207 205 206 218 227 219 210 208 210 213 215 215 214 215 218 218 219 221 213 187 163 188 224 228 204 202 207 204 211 219 209 199 194 192 192 190 188 188 191 196 202 206 214
326 323 320 322 326 327 320 309 305 300 295 295 301 166 191 209 219 217 213 212 211 209 210 215 221 220 213 208 210 213 214 215 215 215 217 218 217 215 200 184 194 210 216 216 209 206 203 197 199 203 194 185 185 188 191 192 194 200 207 207 207 212 220
333 327 324 325 325 326 327 305 288 288 291 289 287 228 201 218 233 238 235 233 227 226 224 220 220 223 217 209 210 214 214 214 213 212 212 210 206 202 193 193 205 212 212 212 208 202 198 193 190 190 186 182 185 190 195 201 204 206 206 204 203 207 206
330 325 322 321 320 321 323 310 281 280 285 278 265 229 199 207 210 211 222 237 243 243 241 232 227 231 227 214 210 214 213 207 200 197 196 189 186 189 190 196 205 208 203 196 187 185 189 190 187 190 195 194 191 192 193 195 196 194 195 198 194 187 175
325 323 318 317 319 320 323 324 317 308 292 270 255 233 208 202 194 189 193 203 226 247 253 246 239 243 242 226 215 216 209 182 166 166 168 173 182 186 189 194 197 194 190 185 181 182 190 197 196 194 197 196 191 188 184 182 185 183 179 176 171 167 163
320 316 314 314 316 320 323 324 324 325 314 277 254 244 226 204 188 181 179 181 201 225 231 234 244 255 258 247 227 209 164 131 136 148 161 186 200 196 191 192 191 189 190 189 188 189 193 197 196 190 190 190 187 187 187 184 180 172 164 161 159 161 161
315 310 305 303 308 316 322 321 319 318 316 291 260 254 255 239 216 201 186 181 190 198 200 204 215 242 266 269 231 142 120 123 141 161 191 207 205 198 196 198 199 200 199 194 190 189 189 190 188 185 186 186 185 189 188 181 173 167 163 159 156 157 157
312 312 299 292 303 318 322 318 316 314 312 307 289 274 275 282 282 276 247 197 186 189 195 199 195 186 197 212 120 117 124 151 169 188 211 206 190 191 202 207 208 206 200 193 188 187 187 186 184 182 182 185 188 186 179 172 169 169 169 164 157 154 152
314 314 297 294 312 327 324 318 318 315 312 312 316 310 298 303 302 294 289 250 201 195 199 202 196 181 164 146 138 149 176 200 200 204 210 197 182 190 201 204 205 199 191 189 189 188 189 187 185 183 181 183 184 179 173 171 169 168 166 163 160 154 146
310 309 292 292 310 320 323 318 311 310 309 312 325 333 331 335 333 321 317 306 254 221 213 201 185 178 168 163 171 183 188 195 199 201 202 194 183 183 188 192 196 194 189 189 188 187 188 187 184 180 176 175 177 175 172 170 166 163 159 159 162 158 146
304 303 290 292 307 319 326 321 309 311 318 319 325 336 345 349 349 347 341 323 293 266 247 217 188 182 178 169 169 176 182 186 189 195 201 195 181 176 181 187 193 195 194 191 187 186 186 182 177 175 171 169 170 172 170 165 161 159 157 160 163 159 151
309 309 300 301 311 323 328 322 316 321 326 322 323 335 348 353 354 355 353 315 276 262 249 229 205 196 188 170 167 176 184 188 192 201 207 198 184 181 183 186 192 197 198 194 187 182 179 175 172 173 171 168 168 169 166 159 155 155 155 157 159 157 158
313 323 314 308 311 318 317 318 323 329 327 322 330 345 354 355 354 354 355 299 242 242 238 225 206 184 143 131 155 173 183 191 199 207 208 201 196 192 186 186 192 195 195 193 186 177 172 169 166 167 169 168 165 161 155 148 146 148 148 147 150 154 158
310 332 309 303 309 311 298 308 322 328 326 324 332 347 356 355 354 352 347 332 244 231 233 221 170 116 108 119 138 157 174 191 201 207 206 199 202 215 205 192 192 192 189 186 180 168 159 155 153 156 161 162 154 147 143 139 135 135 138 140 144 150 156
307 331 305 302 311 310 288 286 304 311 320 331 340 349 356 360 358 352 343 329 295 258 243 216 184 178 181 169 158 165 176 188 195 196 191 191 200 211 218 209 198 190 183 175 163 147 139 140 145 148 148 145 140 136 133 131 129 127 131 135 138 143 149
314 337 333 321 320 313 297 293 301 308 326 350 5 3 359 4 5 355 344 331 312 297 259 198 201 210 210 192 175 174 177 180 186 188 187 196 205 203 199 198 192 179 167 154 140 133 133 139 142 141 136 132 132 131 127 126 125 124 126 130 132 136 142
313 340 341 332 324 318 308 296 293 300 324 351 13 22 10 7 20 6 342 322 300 267 201 186 192 192 186 179 175 168 165 173 184 188 190 199 203 188 168 165 170 164 149 133 130 135 142 144 139 135 133 129 127 126 123 121 120 120 121 123 125 129 134
318 353 341 325 321 324 321 316 316 317 321 330 347 43 209 243 179 149 216 244 224 203 195 187 181 173 168 170 168 159 156 166 178 183 186 190 187 167 151 158 171 166 152 145 145 145 145 143 140 137 133 128 124 122 120 118 117 116 117 121 122 122 123
333 4 328 311 313 323 326 333 344 331 285 277 268 239 236 247 217 196 219 208 182 179 186 180 173 169 167 167 163 155 155 163 176 184 183 176 166 155 156 167 169 159 155 159 158 150 144 143 143 139 135 131 127 124 123 122 119 116 117 120 122 121 121
332 352 316 308 314 326 339 352 341 300 283 280 279 286 302 272 215 218 230 203 176 177 183 176 170 166 166 164 156 151 154 164 176 182 176 164 158 159 169 174 163 153 159 165 160 152 146 145 144 141 138 136 131 127 126 126 123 122 122 124 127 127 126
324 331 331 328 332 349 3 355 301 278 277 283 290 302 312 293 243 200 192 185 182 184 184 180 174 168 163 158 153 153 158 164 170 168 160 154 153 157 169 173 161 155 159 161 157 152 146 144 147 146 142 137 134 131 131 130 129 130 131 132 134 133 131
309 320 335 333 342 12 20 309 269 265 266 272 280 286 284 276 245 199 187 188 187 184 179 177 173 168 163 156 153 157 161 161 158 152 146 146 146 148 156 165 164 162 163 162 160 156 152 151 153 151 147 143 139 137 135 136 137 137 136 136 138 139 138
308 321 328 328 356 32 2 282 269 268 271 277 281 278 267 258 238 217 209 203 194 186 181 176 169 163 160 156 154 156 157 155 154 151 147 146 144 141 144 153 161 164 164 164 164 162 160 158 156 155 153 150 147 147 144 140 140 141 139 139 141 142 141
311 322 322 328 15 39 306 280 280 286 294 304 305 293 280 271 260 245 233 218 201 188 183 177 166 159 158 156 153 152 151 150 150 149 149 148 145 140 138 143 155 161 162 162 164 165 166 164 162 162 161 154 151 153 150 143 140 138 138 140 143 144 140
310 314 314 333 27 17 282 277 286 298 304 314 316 305 291 281 269 259 251 232 210 195 186 177 166 161 159 156 154 153 153 151 150 148 148 148 146 143 139 134 138 149 158 160 162 165 168 168 166 165 164 157 150 145 140 135 133 128 127 129 129 130 133
310 310 312 351 37 327 284 282 293 299 299 304 306 304 296 282 261 248 256 247 225 213 202 184 171 165 160 158 157 156 153 152 151 149 147 144 142 141 138 131 123 120 131 149 161 166 167 165 162 160 159 156 150 143 134 129 124 118 115 113 115 119 125